Weather History for 84691 - November, 2013

Change the Weather History Date:

Monday, November 4, 2013

  Actual Average Record
Temperature  
Mean Temperature 68 °F -  
Max Temperature 75 °F 74 °F - ()
Min Temperature 60 °F 60 °F - ()
Cooling Degree Days 2    
Growing Degree Days 18 (Base 50)    
Moisture  
Dew Point 60 °F    
Average Humidity 80    
Maximum Humidity 94    
Minimum Humidity 65    
Precipitation  
Precipitation 0.00 in 0.00 in - ()
Sea Level Pressure  
Sea Level Pressure 29.96 in    
Wind  
Wind Speed 4 mph ()    
Max Wind Speed 18 mph    
Max Gust Speed -    
Visibility 4.5 miles    
Events      
T = Trace of Precipitation, MM = Missing Value Source: Averaged Metar Reports

Daily Weather History Graph

Daily Weather History Graph

Search for Another Location

Airport or City:

Trip Planner

Search our weather history database for the weather conditions in past years. The results will help you decide how hot, cold, wet, or windy it might be!

Date:

Astronomy

Nov. 04, 2013 Rise Set
Actual Time 5:29 AM PET 6:07 PM PET
Civil Twilight 5:07 AM PET 6:29 PM PET
Nautical Twilight 4:41 AM PET 6:56 PM PET
Astronomical Twilight 4:14 AM PET 7:22 PM PET
Moon 6:23 AM PET 7:28 PM PET
Length of Visible Light 13h 22m
Length of Day
12h 38m
New Moon, 2% of the Moon is Illuminated
Nov 4
New Moon
Nov 10
First Quarter
Nov 17
Full
Nov 25
Last Quarter
Dec 2
New

Hourly Weather History & Observations

Time (PET) Temp. Dew Point Humidity Pressure Visibility Wind Dir Wind Speed Gust Speed Precip Events Conditions
12:00 AM 64.4 °F 60.8 °F 88% 30.01 in 4.3 mi Calm Calm - N/A   Scattered Clouds
1:00 AM 64 °F 60 °F 82% 29.97 in 4 mi Calm Calm - -   Mist
1:00 AM 64.4 °F 60.8 °F 88% 29.98 in 3.7 mi Calm Calm - N/A   Scattered Clouds
2:00 AM 64.4 °F 59.0 °F 83% 29.95 in 3.7 mi Calm Calm - N/A   Unknown
3:00 AM 62.6 °F 59.0 °F 88% 29.95 in 4.3 mi South 3.5 mph - N/A   Unknown
4:00 AM 63 °F 58 °F 80% 29.93 in 4 mi Calm Calm - -   Mist
4:00 AM 62.6 °F 59.0 °F 88% 29.95 in 4.3 mi Calm Calm - N/A   Unknown
5:00 AM 60.8 °F 57.2 °F 88% 29.95 in 3.7 mi Calm Calm - N/A   Unknown
6:00 AM 60.8 °F 57.2 °F 88% 29.98 in 2.5 mi Calm Calm - N/A   Mostly Cloudy
7:00 AM 62.6 °F 57.2 °F 82% 30.01 in 2.5 mi SSW 3.5 mph - N/A   Haze
8:00 AM 64.4 °F 60.8 °F 88% 30.01 in 2.5 mi SSW 4.6 mph - N/A   Mostly Cloudy
9:00 AM 68.0 °F 59.0 °F 73% 30.01 in 3.1 mi WSW 5.8 mph - N/A   Haze
10:00 AM 71.6 °F 60.8 °F 69% 30.01 in 3.7 mi WSW 8.1 mph - N/A   Mostly Cloudy
11:00 AM 69.8 °F 62.6 °F 78% 29.98 in 4.3 mi WNW 8.1 mph - N/A   Mostly Cloudy
12:00 PM 71.6 °F 62.6 °F 73% 29.95 in 5.0 mi West 6.9 mph - N/A   Partly Cloudy
1:00 PM 73.4 °F 60.8 °F 65% 29.92 in 5.0 mi West 9.2 mph - N/A   Partly Cloudy
2:00 PM 75.2 °F 62.6 °F 65% 29.89 in 5.0 mi WSW 15.0 mph - N/A   Unknown
3:00 PM 73.4 °F 62.6 °F 69% 29.89 in 6.2 mi WSW 17.3 mph - N/A   Scattered Clouds
4:00 PM 71 °F 62 °F 67% 29.90 in 6 mi SSW 18.4 mph - -   Partly Cloudy
4:00 PM 71.6 °F 62.6 °F 73% 29.92 in 6.2 mi SW 18.4 mph - N/A   Scattered Clouds
5:00 PM 68.0 °F 60.8 °F 78% 29.92 in 6.2 mi SSW 16.1 mph - N/A   Mostly Cloudy
6:00 PM 66.2 °F 60.8 °F 83% 29.95 in 6.2 mi SW 16.1 mph - N/A   Mostly Cloudy
7:00 PM 64.4 °F 59.0 °F 83% 29.95 in 6.2 mi SSW 15.0 mph - N/A   Scattered Clouds
8:00 PM 64.4 °F 59.0 °F 83% 29.98 in 5.0 mi SSW 11.5 mph - N/A   Unknown
9:00 PM 64.4 °F 59.0 °F 83% 29.98 in 5.0 mi ESE 4.6 mph - N/A   Unknown
10:00 PM 62.6 °F 60.8 °F 94% 30.01 in 5.0 mi Calm Calm - N/A   Unknown
11:00 PM 62.6 °F 59.0 °F 88% 30.01 in 5.0 mi Variable 2.3 mph - N/A   Partly Cloudy